STARLINK-5867, 55918

Orbit data source: Space-Track

STARLINK-5867, 55918 is a payload satellite owned by SpaceX/Seattle (US) in LEO that was launched on Fri, 17 Mar 2023 UTC via an FALCON 9 launch vehicle from the Air Force Western Test Range (AFWTR). Payload-class satellites include a variety of spacecraft equipped with specific instruments for various scientific and technological missions. These include communications satellites like Starlink; space stations such as the ISS; scientific satellites like the Hubble; Earth observation satellites from companies like Planet Labs, Umbra, and HawkEye 360; GPS; miniature CubeSats for education and research; and military/defense satellites.

Loading next visibility...
Identifier
55918, 2023-037E
Orbit
LEO
Country
Flag of USUS
Related business
Manufacturer
SpaceX/Seattle
Mission
Operational Commercial Communications
Bus & Motor
STARLINK, Unknown motor
Mass
305 kg wet, ~290 kg dry
Launch date (UTC)
2023-03-17 (3 years ago)
Launch vehicle
FALCON 9
Launch site
Air Force Western Test Range (AFWTR)
Object type
Payload
Rocket body
Debris
Shape & HBR
Box + 1 Pan, 10.1 m
Radar Cross Section
11.087 m², Large (>1 m²)

Expand to show TLE details & history
Last TLE update: 17 hours ago

TLE from 17 hours ago
0 STARLINK-5867
1 55918U 23037E   25348.89764344  .00008650  00000-0  73195-3 0  9997
2 55918  69.9994 158.3479 0003583 267.6977  92.3772 14.98323178150783
Epoch: 2025-12-14T21:32Z
TLE epoch observation values (Epoch: 2025-12-14T21:32:36.393Z)
Latitude
0.00001°
Longitude
111.3923°
Altitude
574.605 km
Speed
7.574 km/s
True Right ascension
10h 33m 23s
True Declination
0° 00' 00"
Sunlit
Object was in daylight at epoch
Visualization orbit readout
Latitude
Unknown
Longitude
Unknown
Altitude
Unknown
Speed
Unknown
Apparent Right ascension
Unknown
Apparent Declination
Unknown
Sunlit
N/A
Visualization observer readout
Local Sidereal Time
13:18:50
Azimuth
Unknown
Elevation
Unknown
Doppler factor
Unknown
Orbital elements
Apogee altitude
572.515 km
Perigee altitude
567.536 km
Semi-major axis
6,948.162 km
Eccentricity
0.00036
Inclination
69.9994°
RAAN
158.3479°
Arg. of periapsis
267.6977°
True anomaly
92.41822°
Mean anomaly
92.3772°
Eccentric anomaly
92.39771°
Mean motion
3.74747 °/min
Orbital period
96.06 mins
BSTAR
0.00073195
Loading maneuver chart data...
Computing Atmospheric mass density...
Loading historical data...
Loading historical data...
Loading historical data...
Loading historical data...
Loading historical data...
Loading historical data...
Loading historical data...

Documentation

Showing up to 5 results
|